[[{"header":{"parameterUnit":"m.s-1","parameterCategory":1,"la1":30.2991,"la2":30.254,"lo1":-89.0895,"lo2":-89.0444,"dy":0.0017,"dx":0.0017,"nx":28,"ny":28,"refTime":"2025-11-04T09:00:00:Z","depth":0,"parameterNumber":2,"parameterNumberName":"U-component_of_WINDS"},"data":[0,0,0,0,0,0,0,0,0,0,0,0,0,0,0,0,0,0,0,0,0,0,0,0,0,0,0,0,0,0,0,0,0,0,0,0,0,0,0,0,0,0,0,0,0,0,0,0,0,0,0,0,0,0,0,0,0,0,-2.9319,-2.9319,0,-2.9347,-2.9347,-2.9348,-2.9241,-2.9238,-2.9235,-2.9232,-2.9262,-2.9266,-2.927,0,0,0,0,0,0,0,0,0,0,0,0,0,-2.9175,-2.9178,-2.9319,-2.9319,-2.932,-2.9347,-2.9347,-2.9348,-2.9242,-2.9238,-2.9234,-2.923,-2.9261,-2.9266,-2.927,0,0,0,0,0,0,0,0,0,0,0,0,0,-2.9224,-2.9179,-2.9319,-2.927,-2.9266,-2.9347,-2.9347,-2.9348,-2.9242,-2.9238,-2.9233,-2.9228,-2.926,-2.9265,-2.9271,-2.9401,0,0,-2.9288,-2.929,0,0,0,0,0,0,0,0,-2.9221,-2.9229,-2.9277,-2.9273,-2.9269,-2.9285,-2.9307,-2.9366,-2.9244,-2.9251,-2.9232,-2.9226,-2.9274,-2.9278,-2.9294,-2.9402,-2.9403,-2.9288,-2.9292,-2.9294,-2.9296,0,0,0,0,0,0,0,-2.9218,-2.9227,-2.933,-2.9278,-2.9273,-2.9247,-2.9249,-2.9318,-2.9289,-2.925,-2.9243,-2.9247,-2.9271,-2.9289,-2.9294,-2.9404,-2.9288,-2.9293,-2.9297,-2.9299,-2.9619,-2.9624,0,0,0,0,0,0,-2.9221,-2.9225,-2.9329,-2.9331,-2.9233,-2.9253,-2.9255,-2.9285,-2.9288,-2.9284,-2.9251,-2.9242,-2.9281,-2.9287,-2.9295,-2.9446,-2.9294,-2.93,-2.9303,-2.9614,-2.962,-2.9626,0,0,0,0,0,0,-2.9218,-2.9231,-2.9328,-2.9276,-2.9286,-2.9261,-2.9295,-2.9288,-2.9306,-2.9289,-2.9283,-2.9275,-2.9278,-2.9287,-2.9375,-2.9446,-2.9302,-2.9307,-2.9608,-2.9616,-2.9623,-2.9751,0,0,0,0,0,0,-2.9214,-2.9231,-2.9279,-2.9278,-2.9289,-2.9408,-2.93,-2.9292,-2.9315,-2.9304,-2.9309,-2.9306,-2.9275,-2.9367,-2.938,-2.9451,-2.9312,-2.9602,-2.9612,-2.9621,-2.974,-2.9762,-2.9781,0,0,0,0,0,-2.9209,-2.9315,-2.9282,-2.9295,-2.935,-2.9412,-2.9419,-2.9381,-2.9322,-2.9371,-2.936,-2.9305,-2.9436,-2.9377,-2.9391,-2.9464,-2.9597,-2.9609,-2.962,-2.9731,-2.9758,-2.978,0,0,0,0,0,0,-2.9326,-2.9314,-2.9278,-2.9385,-2.94,-2.9394,-2.9454,-2.941,-2.9443,-2.943,-2.9382,-2.9385,-2.9481,-2.9482,-2.9416,-2.959,-2.9506,-2.9521,-2.9586,-2.9611,-2.9631,-2.9628,-2.9316,0,0,0,0,0,-2.9364,-2.9415,-2.9402,-2.9498,-2.9507,-2.948,-2.9506,-2.9475,-2.9489,-2.9495,-2.949,-2.9506,-2.9551,-2.9581,-2.9621,-2.974,-2.9739,-2.9798,-2.9818,-2.9834,-2.9848,-2.991,-2.9935,-2.9664,-2.9664,-2.9663,0,0,-2.9444,-2.9443,-2.9478,-2.9522,-2.9529,-2.9584,-2.9486,-2.9548,-2.9587,-2.9504,-2.9587,-2.9584,-2.9599,-2.9703,-2.9749,-2.9706,-2.9923,-2.9849,-2.9863,-2.9867,-2.9924,-2.995,-2.9973,-2.9672,-2.967,-2.9669,0,0,-2.9616,-2.9621,-2.9701,-2.9711,-2.9724,-2.9705,-2.9725,-2.9725,-2.972,-2.9802,-2.9741,-2.9788,-2.9865,-2.9878,-2.9895,-3.0072,-3.0023,-3.0087,-3.0192,-3.0253,-3.0275,-3.0293,-3.0356,-3.0379,-3.01,-3.01,-3.0101,0,-2.9713,-2.9791,-2.9748,-2.9814,-2.9834,-2.9761,-2.9843,-2.9855,-2.9881,-2.9897,-2.9849,-2.9945,-2.995,-3.0055,-3.0099,-3.0115,-3.0135,-3.0085,-3.0275,-3.0293,-3.031,-3.0369,-3.0393,-3.0108,-3.0107,-3.0106,-3.0106,0,-2.9909,-2.9965,-3.0028,-3.0054,-3.0082,-3.0156,-3.0124,-3.0158,-3.0125,-3.0112,-3.0196,-3.0199,-3.0238,-3.0261,-3.0231,-3.0363,-3.0336,-3.0283,-3.0197,-3.0344,-3.0399,-3.0421,-3.0119,-3.0116,-3.0114,-3.0112,0,0,-3.0155,-3.0156,-3.018,-3.0191,-3.02,-3.0242,-3.0313,-3.035,-3.038,-3.04,-3.0458,-3.0525,-3.0476,-3.0495,-3.0465,-3.0519,-3.0658,-3.0458,-3.0458,-3.0494,-3.0803,-3.0843,-3.087,-3.0626,-3.063,-3.0634,-3.0802,0,-3.0323,-3.0441,-3.0405,-3.0525,-3.0575,-3.0507,-3.0568,-3.0581,-3.057,-3.0611,-3.06,-3.0648,-3.0579,-3.059,-3.0641,-3.063,-3.0719,-3.0618,-3.0679,-3.0681,-3.0676,-3.0898,-3.094,-3.1099,-3.0823,-3.0827,-3.0829,0,-3.0534,-3.0563,-3.0687,-3.0687,-3.0707,-3.0763,-3.0794,-3.0835,-3.0848,-3.0836,-3.0858,-3.0817,-3.0885,-3.0801,-3.0895,-3.0827,-3.085,-3.0849,-3.0854,-3.0857,-3.0763,-3.0907,-3.1148,-3.1172,-3.0862,-3.086,-3.0857,0,-3.07,-3.0769,-3.0852,-3.0864,-3.0866,-3.0907,-3.091,-3.0918,-3.0943,-3.0971,-3.0987,-3.1023,-3.1042,-3.1071,-3.1041,-3.0983,-3.114,-3.1053,-3.1132,-3.1133,-3.1167,-3.1165,-3.1415,-3.1184,-3.1184,-3.1184,-3.1183,0,-3.089,-3.0969,-3.0926,-3.0978,-3.1064,-3.1022,-3.1108,-3.1104,-3.1112,-3.1161,-3.1105,-3.1153,-3.111,-3.1154,-3.1131,-3.1213,-3.1222,-3.1215,-3.1207,-3.1219,-3.122,-3.1233,-3.122,-3.119,-3.1188,-3.1187,-3.1186,0,-3.1089,-3.1064,-3.115,-3.1145,-3.1146,-3.121,-3.1206,-3.1253,-3.1238,-3.1302,-3.1314,-3.1292,-3.134,-3.1313,-3.1364,-3.1348,-3.1453,-3.1432,-3.1449,-3.1443,-3.1523,-3.1515,-3.1789,-3.1822,-3.1571,-3.1573,-3.1575,0,-3.1212,-3.1271,-3.1272,-3.1301,-3.1308,-3.1355,-3.1379,-3.1341,-3.1369,-3.1388,-3.1434,-3.1477,-3.151,-3.1592,-3.158,-3.1618,-3.1597,-3.169,-3.1602,-3.1612,-3.1597,-3.1593,-3.1599,-3.1707,-3.171,-3.1712,-3.1714,0,-3.1432,-3.1417,-3.1454,-3.1488,-3.1519,-3.1544,-3.1564,-3.1591,-3.1552,-3.1587,-3.1636,-3.1661,-3.1712,-3.1757,-3.179,-3.1793,-3.1748,-3.1742,-3.1762,-3.1774,-3.1781,-3.1778,-3.1496,-3.1736,-3.1734,-3.1732,-3.1731,-3.173,-3.1596,-3.1644,-3.1653,-3.1697,-3.1708,-3.1728,-3.1772,-3.1763,-3.1802,-3.184,-3.1815,-3.1873,-3.1885,-3.1924,-3.1934,-3.1978,-3.1941,-3.197,-3.1978,-3.1985,-3.1996,-3.1775,-3.1984,-3.1984,-3.1983,-3.1983,-3.1982,0,-3.1812,-3.1814,-3.1855,-3.1884,-3.1919,-3.1873,-3.1893,-3.1925,-3.1976,-3.199,-3.2024,-3.208,-3.2123,-3.2115,-3.2153,-3.2191,-3.2171,-3.2202,-3.2199,-3.22,-3.2027,-3.2006,-3.2218,-3.2218,-3.2218,-3.2218,-3.2217,-3.2217,-3.1929,-3.2008,-3.1994,-3.2079,-3.208,-3.2136,-3.2151,-3.2169,-3.218,-3.2245,-3.228,-3.2275,-3.228,-3.2319,-3.2356,-3.2353,-3.2369,-3.2408,-3.2397,-3.2236,-3.2212,-3.219,-3.2169,-3.2412,-3.2413,-3.2566,-3.2567,-3.2568]},{"header":{"parameterUnit":"m.s-1","parameterCategory":1,"la1":30.2991,"la2":30.254,"lo1":-89.0895,"lo2":-89.0444,"dy":0.0017,"dx":0.0017,"nx":28,"ny":28,"refTime":"2025-11-04T09:00:00:Z","depth":0,"parameterNumber":3,"parameterNumberName":"V-component_of_WINDS"},"data":[0,0,0,0,0,0,0,0,0,0,0,0,0,0,0,0,0,0,0,0,0,0,0,0,0,0,0,0,0,0,0,0,0,0,0,0,0,0,0,0,0,0,0,0,0,0,0,0,0,0,0,0,0,0,0,0,0,0,1.4549,1.4549,0,1.4546,1.4546,1.4546,1.4562,1.4562,1.4563,1.4563,1.4556,1.4556,1.4555,0,0,0,0,0,0,0,0,0,0,0,0,0,1.4567,1.4566,1.4549,1.4549,1.4549,1.4546,1.4546,1.4546,1.4562,1.4562,1.4563,1.4563,1.4556,1.4556,1.4555,0,0,0,0,0,0,0,0,0,0,0,0,0,1.4561,1.4566,1.4549,1.4557,1.4558,1.4546,1.4546,1.4546,1.4562,1.4562,1.4563,1.4564,1.4557,1.4556,1.4555,1.4534,0,0,1.4552,1.4551,0,0,0,0,0,0,0,0,1.4561,1.456,1.4556,1.4556,1.4557,1.4555,1.4549,1.4542,1.4561,1.456,1.4563,1.4564,1.4555,1.4554,1.4552,1.4534,1.4534,1.4552,1.4551,1.4551,1.455,0,0,0,0,0,0,0,1.4561,1.456,1.4548,1.4556,1.4556,1.4559,1.4559,1.4548,1.4553,1.456,1.4561,1.4561,1.4555,1.4553,1.4552,1.4534,1.4552,1.4551,1.455,1.455,1.4498,1.4497,0,0,0,0,0,0,1.4561,1.4561,1.4548,1.4548,1.4561,1.4559,1.4559,1.4555,1.4554,1.4554,1.456,1.4562,1.4554,1.4553,1.4552,1.4527,1.4551,1.455,1.4549,1.4499,1.4498,1.4497,0,0,0,0,0,0,1.4562,1.456,1.4548,1.4554,1.4553,1.4558,1.4553,1.4554,1.4552,1.4554,1.4554,1.4557,1.4555,1.4553,1.4539,1.4527,1.4549,1.4549,1.45,1.4499,1.4498,1.4478,0,0,0,0,0,0,1.4562,1.456,1.4553,1.4554,1.4553,1.4536,1.4553,1.4554,1.455,1.4552,1.4551,1.4551,1.4555,1.454,1.4538,1.4526,1.4548,1.4501,1.4499,1.4498,1.448,1.4477,1.4474,0,0,0,0,0,1.4563,1.4547,1.4553,1.4551,1.4544,1.4535,1.4534,1.454,1.455,1.4542,1.4543,1.4551,1.4529,1.4538,1.4536,1.4524,1.4502,1.45,1.4498,1.4481,1.4477,1.4474,0,0,0,0,0,0,1.4543,1.4547,1.4554,1.4538,1.4536,1.4538,1.4529,1.4536,1.4531,1.4532,1.4539,1.4538,1.4523,1.4522,1.4532,1.4504,1.4517,1.4514,1.4505,1.4501,1.4498,1.4498,1.4547,0,0,0,0,0,1.4537,1.4531,1.4534,1.452,1.4519,1.4524,1.452,1.4525,1.4523,1.4522,1.4523,1.4519,1.4512,1.4506,1.45,1.448,1.448,1.4471,1.4468,1.4465,1.4463,1.4452,1.4448,1.4491,1.4491,1.4491,0,0,1.4525,1.4526,1.4521,1.4517,1.4516,1.4508,1.4523,1.4514,1.4508,1.4521,1.4507,1.4507,1.4504,1.4487,1.448,1.4486,1.4451,1.4463,1.4461,1.446,1.4449,1.4445,1.4442,1.449,1.449,1.449,0,0,1.4498,1.4498,1.4487,1.4486,1.4485,1.4488,1.4486,1.4486,1.4487,1.4474,1.4483,1.4476,1.4463,1.446,1.4457,1.4429,1.4435,1.4426,1.441,1.4399,1.4395,1.4392,1.4382,1.4378,1.4424,1.4424,1.4424,0,1.4482,1.4471,1.4479,1.447,1.4467,1.448,1.4467,1.4465,1.4462,1.4459,1.4467,1.4451,1.4449,1.4432,1.4425,1.4422,1.4418,1.4426,1.4396,1.4393,1.439,1.438,1.4376,1.4423,1.4423,1.4423,1.4423,0,1.4451,1.4444,1.4434,1.4431,1.4428,1.4417,1.4422,1.4417,1.4423,1.4425,1.4411,1.441,1.4403,1.44,1.4404,1.4382,1.4386,1.4395,1.4407,1.4384,1.4375,1.4371,1.4421,1.4422,1.4422,1.4422,0,0,1.4411,1.4414,1.441,1.4409,1.4409,1.4403,1.4392,1.4386,1.4381,1.4378,1.4369,1.4358,1.4366,1.4362,1.4367,1.4357,1.4334,1.4367,1.4367,1.436,1.4309,1.4302,1.4298,1.4339,1.4339,1.4338,1.4309,0,1.4384,1.4367,1.4374,1.4356,1.4348,1.436,1.4351,1.4349,1.4351,1.4344,1.4346,1.4338,1.4349,1.4347,1.4338,1.4339,1.4324,1.4341,1.4329,1.4328,1.4329,1.4293,1.4286,1.4258,1.4306,1.4305,1.4305,0,1.435,1.4347,1.4328,1.4329,1.4326,1.4318,1.4313,1.4307,1.4305,1.4307,1.4303,1.431,1.4298,1.4312,1.4295,1.4307,1.4302,1.4302,1.4301,1.4299,1.4314,1.4289,1.425,1.4246,1.4299,1.4299,1.43,0,1.4321,1.4312,1.43,1.4299,1.43,1.4294,1.4294,1.4293,1.4289,1.4284,1.4282,1.4276,1.4272,1.4267,1.4271,1.4281,1.4253,1.4267,1.4253,1.4253,1.4246,1.4247,1.4205,1.4245,1.4245,1.4245,1.4245,0,1.429,1.4278,1.4287,1.4279,1.4266,1.4274,1.426,1.4261,1.426,1.4252,1.4262,1.4254,1.426,1.4253,1.4256,1.4241,1.4239,1.424,1.4241,1.4238,1.4238,1.4235,1.4236,1.4244,1.4244,1.4244,1.4245,0,1.4255,1.4262,1.4249,1.4252,1.4252,1.4242,1.4243,1.4236,1.4239,1.4228,1.4226,1.423,1.4221,1.4226,1.4216,1.4218,1.4199,1.4203,1.42,1.4201,1.4186,1.4187,1.414,1.4134,1.4179,1.4178,1.4178,0,1.4235,1.4226,1.4228,1.4224,1.4223,1.4216,1.4213,1.422,1.4216,1.4213,1.4206,1.4198,1.4192,1.4178,1.4179,1.4171,1.4174,1.4159,1.4173,1.4171,1.4173,1.4173,1.4172,1.4155,1.4155,1.4154,1.4154,0,1.4197,1.42,1.4195,1.4191,1.4187,1.4184,1.4181,1.4177,1.4184,1.4179,1.4171,1.4166,1.4157,1.4149,1.4143,1.4141,1.4148,1.415,1.4146,1.4143,1.4141,1.4141,1.4191,1.415,1.4151,1.4151,1.4151,1.4151,1.4168,1.416,1.4161,1.4155,1.4154,1.4151,1.4144,1.4147,1.414,1.4134,1.4139,1.4129,1.4127,1.4119,1.4117,1.4109,1.4115,1.411,1.4108,1.4106,1.4104,1.4144,1.4108,1.4108,1.4108,1.4108,1.4108,0,1.413,1.4131,1.4125,1.4122,1.4117,1.4126,1.4123,1.4118,1.411,1.4108,1.4102,1.4092,1.4085,1.4086,1.4078,1.4071,1.4074,1.4069,1.4069,1.4068,1.4099,1.4103,1.4067,1.4067,1.4067,1.4067,1.4067,1.4067,1.4109,1.4097,1.41,1.4087,1.4088,1.408,1.4077,1.4075,1.4073,1.4062,1.4056,1.4058,1.4057,1.4049,1.4042,1.4042,1.4039,1.4032,1.4033,1.4062,1.4066,1.407,1.4074,1.4031,1.4031,1.4003,1.4003,1.4003]}]]